Content
SEND FEEDBACK

Daily
Averages
Monthly
Summary
United States of America

FONTANA DAM, NORTH CAROLINA


Home > North America > United States > North Carolina
Elevation: 1506 feet     Latitude: 35 27N     Longitude: 083 56W

WEATHER
 
SELECT A DAY
Number of Records: 299,973;   Date Range: 5/18/01 - 10/1/14
 
SHARE

PRINT THIS DATA

[ ← Previous Day ]
WEATHER ALMANAC - JUNE 14, 2013
[ Next Day → ]
[ °C ]   °F
Weather ElementAverageHighLow
Temperature69.2 °F81.3 °F (3:55 pm)55.4 °F (6:35 am)
Dewpoint55.9 °F64.9 °F (12:35 am)51.3 °F (5:15 pm)
Humidity66.5 %98 % (12:35 am)36 % (5:15 pm)
Barometer29.99 in30.09 in (11:35 pm)29.92 in (12:35 am)
Wind Speed5.5 mph15 mph (10:15 am)
Wind Gust21.9 mph (2:15 pm)
Weather ElementAverage
Visibility9.9 mi
Wind DirectionE (85.5 °)

Weather ElementTotal
Precipitation---
Cooling Degree Days3.3 (Base 65)
Growing Degree Days18.4 (Base 50)
Averaged from 71 records on June 14, 2013
WEATHER CONDITIONS BREAKOUT
WIND DIRECTION BREAKOUT
WEATHER BY HOUR - JUNE 14, 2013
[ °C ]   °F
Local TimeTemperatureDewpointHumidityBarometerVisibilityWind DirectionWind SpeedGust SpeedPrecipitationEventsConditions
12:35 AM65.7 °F64.9 °F98 %29.92 in7.0 miCalm
12:55 AM67.6 °F63.1 °F85 %29.93 in10.0 miNNW (340°)4.6 mph
1:15 AM69.3 °F62.4 °F79 %29.92 in10.0 miWNW (300°)3.5 mph
1:35 AM69.1 °F61.5 °F77 %29.92 in10.0 miNorth (360°)9.2 mph16.1 mph
1:55 AM68.4 °F59.4 °F73 %29.93 in10.0 miNorth (350°)8.1 mph
2:15 AM67.3 °F57.9 °F72 %29.93 in10.0 miNNW (340°)5.8 mph
2:35 AM63.5 °F58.8 °F85 %29.93 in10.0 miNNW (330°)6.9 mph
2:55 AM62.4 °F58.3 °F86 %29.93 in10.0 miCalm
3:15 AM62.4 °F57.4 °F84 %29.93 in10.0 miNNW (330°)5.8 mph
3:35 AM60.6 °F57.2 °F88 %29.93 in10.0 miNorth (360°)6.9 mph
3:55 AM61.3 °F56.5 °F84 %29.93 in10.0 miCalm
4:15 AM59.2 °F56.7 °F91 %29.93 in10.0 miSE (130°)3.5 mph
4:35 AM58.1 °F56.8 °F96 %29.94 in10.0 miCalm
4:55 AM58.3 °F56.3 °F93 %29.95 in10.0 miCalm
5:15 AM56.5 °F55.6 °F97 %29.95 in10.0 miCalm
5:35 AM56.1 °F55.6 °F98 %29.96 in7.0 miCalm
5:55 AM55.6 °F54.9 °F97 %29.96 in10.0 miCalm
6:15 AM56.3 °F55.2 °F96 %29.97 in10.0 miCalm
6:35 AM55.4 °F54.1 °F96 %29.98 in10.0 miCalm
6:55 AM55.6 °F54.9 °F97 %29.99 in10.0 miCalm
7:15 AM56.5 °F55.4 °F96 %30.00 in10.0 miCalm
7:35 AM57.6 °F55.9 °F94 %29.99 in10.0 miENE (70°)3.5 mph
7:55 AM59.5 °F56.5 °F90 %29.98 in10.0 miEast (100°)3.5 mph
8:15 AM61.2 °F57.2 °F87 %29.98 in10.0 miNE (50°)6.9 mph
8:35 AM63.3 °F56.5 °F78 %29.99 in10.0 miENE (70°)5.8 mph
8:55 AM66.2 °F57.6 °F74 %30.00 in10.0 miEast (100°)6.9 mph
9:15 AM68.2 °F56.7 °F67 %30.00 in10.0 miEast (100°)4.6 mph
9:35 AM69.3 °F55.8 °F62 %30.00 in10.0 miENE (70°)10.4 mph
9:55 AM70.0 °F55.8 °F61 %30.00 in10.0 miNE (50°)13.8 mph17.3 mph
10:15 AM70.9 °F54.7 °F56 %30.00 in10.0 miENE (60°)15.0 mph19.6 mph
10:35 AM71.4 °F54.5 °F55 %30.00 in10.0 miENE (60°)9.2 mph18.4 mph
10:55 AM72.5 °F54.9 °F54 %30.00 in10.0 miNE (40°)8.1 mph
11:15 AM73.4 °F54.5 °F51 %30.00 in10.0 miENE (70°)6.9 mph11.5 mph
11:35 AM74.8 °F54.3 °F49 %30.00 in10.0 miEast (80°)8.1 mph16.1 mph
11:55 AM75.9 °F53.8 °F46 %30.00 in10.0 miENE (60°)9.2 mph
12:15 PM76.1 °F53.8 °F46 %30.00 in10.0 miNorth (10°)5.8 mph
12:35 PM76.3 °F55.0 °F48 %30.00 in10.0 miNE (40°)6.9 mph
12:55 PM77.4 °F55.0 °F46 %30.00 in10.0 miNorth (10°)8.1 mph16.1 mph
1:15 PM77.9 °F54.3 °F44 %30.01 in10.0 miNorth (360°)8.1 mph
1:35 PM78.3 °F54.9 °F44 %30.01 in10.0 miNNE (20°)6.9 mph
1:55 PM78.8 °F55.2 °F44 %30.01 in10.0 miNE (50°)8.1 mph
2:15 PM79.0 °F54.7 °F43 %30.01 in10.0 miNNE (20°)9.2 mph21.9 mph
2:35 PM79.2 °F54.7 °F43 %30.00 in10.0 miNE (40°)5.8 mph
2:55 PM79.5 °F54.0 °F41 %29.99 in10.0 miNNE (30°)8.1 mph16.1 mph
3:15 PM80.6 °F53.8 °F39 %29.99 in10.0 miNE (40°)11.5 mph17.3 mph
3:35 PM80.8 °F52.7 °F38 %29.99 in10.0 miENE (70°)10.4 mph18.4 mph
3:55 PM81.3 °F53.8 °F38 %29.99 in10.0 miNE (40°)9.2 mph
4:15 PM81.1 °F53.4 °F38 %29.99 in10.0 miNNE (20°)3.5 mph
4:35 PM81.1 °F52.7 °F37 %29.98 in10.0 miENE (60°)5.8 mph19.6 mph
4:55 PM80.8 °F52.2 °F37 %29.99 in10.0 miNE (40°)10.4 mph
5:15 PM80.8 °F51.3 °F36 %29.99 in10.0 miNNE (30°)11.5 mph16.1 mph
5:35 PM80.6 °F52.2 °F37 %29.99 in10.0 miNNE (30°)9.2 mph
5:55 PM80.4 °F52.2 °F37 %29.99 in10.0 miENE (60°)9.2 mph
6:15 PM79.5 °F51.8 °F38 %29.99 in10.0 miNE (40°)11.5 mph16.1 mph
6:35 PM79.2 °F52.3 °F39 %29.99 in10.0 miNE (40°)8.1 mph
6:55 PM78.8 °F52.5 °F40 %29.99 in10.0 miNE (50°)8.1 mph
7:15 PM77.9 °F54.1 °F44 %30.00 in10.0 miNNE (20°)5.8 mph
7:35 PM77.0 °F55.6 °F47 %30.01 in10.0 miNorth (360°)3.5 mph
7:55 PM75.4 °F55.9 °F51 %30.01 in10.0 miNorth (360°)5.8 mph
8:15 PM73.2 °F55.8 °F54 %30.01 in10.0 miNorth (10°)6.9 mph
8:35 PM71.4 °F55.8 °F58 %30.01 in10.0 miCalm
8:55 PM67.5 °F57.9 °F71 %30.03 in10.0 miENE (60°)5.8 mph
9:15 PM65.1 °F58.5 °F79 %30.03 in10.0 miESE (110°)4.6 mph
9:35 PM64.8 °F57.2 °F76 %30.05 in10.0 miENE (60°)3.5 mph
9:55 PM62.6 °F57.6 °F84 %30.05 in10.0 miENE (60°)3.5 mph
10:15 PM61.7 °F57.2 °F85 %30.06 in10.0 miCalm
10:35 PM60.8 °F57.2 °F88 %30.07 in10.0 miENE (60°)3.5 mph
10:55 PM61.5 °F57.0 °F85 %30.07 in10.0 miCalm
11:15 PM62.1 °F58.5 °F88 %30.08 in10.0 miCalm
11:35 PM62.1 °F57.6 °F85 %30.09 in10.0 miNE (50°)3.5 mph
11:55 PM62.2 °F56.5 °F81 %30.09 in10.0 miCalm
Hourly data recorded from KRHP, located miles away from Fontana Dam, North Carolina







STORIES FROM OUR PARTNERS